TimeCEST,TemperatureF,Dew PointF,Humidity,Sea Level PressureIn,VisibilityMPH,Wind Direction,Wind SpeedMPH,Gust SpeedMPH,PrecipitationIn,Events,Conditions,WindDirDegrees,DateUTC
12:15 AM,57.2,55.4,94,30.15,-9999.0,Calm,Calm,-,N/A,,Clear,0,2012-09-30 22:15:00
12:45 AM,57.2,55.4,94,30.12,-9999.0,Calm,Calm,-,N/A,,Clear,0,2012-09-30 22:45:00
1:15 AM,55.4,55.4,100,30.12,-9999.0,Calm,Calm,-,N/A,,Clear,0,2012-09-30 23:15:00
1:45 AM,55.4,55.4,100,30.12,-9999.0,Calm,Calm,-,N/A,,Clear,0,2012-09-30 23:45:00
2:15 AM,55.4,55.4,100,30.12,-9999.0,Calm,Calm,-,N/A,,Clear,0,2012-10-01 00:15:00
2:45 AM,57.2,55.4,94,30.09,-9999.0,Calm,Calm,-,N/A,,Clear,0,2012-10-01 00:45:00
3:15 AM,57.2,55.4,94,30.09,-9999.0,Calm,Calm,-,N/A,,Clear,0,2012-10-01 01:15:00
3:45 AM,-9999,-9999,N/A,-9999,5.0,Variable,4.5,-,N/A,Rain,Light Rain,0,2012-10-01 01:45:00
4:15 AM,57.2,55.4,94,30.09,-9999.0,Calm,Calm,-,N/A,,Clear,0,2012-10-01 02:15:00
4:45 AM,57.2,55.4,94,30.09,6.2,Calm,Calm,-,N/A,,Overcast,0,2012-10-01 02:45:00
5:15 AM,57.2,55.4,94,30.09,6.2,Calm,Calm,-,N/A,,Mostly Cloudy,0,2012-10-01 03:15:00
5:45 AM,55.4,55.4,100,30.06,-9999.0,Calm,Calm,-,N/A,,Clear,0,2012-10-01 03:45:00
6:15 AM,55.4,55.4,100,30.06,6.2,Calm,Calm,-,N/A,,Mostly Cloudy,0,2012-10-01 04:15:00
6:17 AM,55.4,55.4,100,30.06,6.2,Calm,Calm,-,N/A,Rain,Light Rain,0,2012-10-01 04:17:00
6:36 AM,57.2,55.4,94,30.06,6.2,West,4.5,-,N/A,,Mostly Cloudy,270,2012-10-01 04:36:00
6:45 AM,-9999,-9999,N/A,-9999,5.0,Variable,4.5,-,N/A,Rain,Light Rain,0,2012-10-01 04:45:00
7:15 AM,57.2,57.2,100,30.06,6.2,Calm,Calm,-,N/A,,Mostly Cloudy,0,2012-10-01 05:15:00
7:45 AM,59.0,57.2,94,30.06,-9999.0,Calm,Calm,-,N/A,,Clear,0,2012-10-01 05:45:00
8:15 AM,59.0,57.2,94,30.09,-9999.0,NNW,2.2,-,N/A,,Clear,330,2012-10-01 06:15:00
8:45 AM,60.8,57.2,88,30.09,-9999.0,NNW,2.2,-,N/A,,Clear,330,2012-10-01 06:45:00
9:15 AM,64.4,59.0,83,30.09,-9999.0,Calm,Calm,-,N/A,,Clear,0,2012-10-01 07:15:00
9:45 AM,-9999,-9999,N/A,-9999,5.0,South,6.7,-,N/A,Rain,Light Rain,190,2012-10-01 07:45:00
10:15 AM,66.2,57.2,73,30.09,-9999.0,Calm,Calm,-,N/A,,Clear,0,2012-10-01 08:15:00
10:45 AM,68.0,57.2,68,30.06,-9999.0,South,2.2,-,N/A,,Clear,190,2012-10-01 08:45:00
11:15 AM,69.8,57.2,64,30.06,-9999.0,SSE,6.7,-,N/A,,Clear,160,2012-10-01 09:15:00
11:45 AM,71.6,57.2,60,30.06,-9999.0,South,6.7,-,N/A,,Clear,170,2012-10-01 09:45:00
12:15 PM,73.4,59.0,61,30.06,-9999.0,South,6.7,-,N/A,,Clear,170,2012-10-01 10:15:00
12:45 PM,-9999,-9999,N/A,-9999,-9999.0,South,6.7,-,N/A,,Clear,190,2012-10-01 10:45:00
1:15 PM,75.2,59.0,57,30.04,-9999.0,South,6.7,-,N/A,,Clear,190,2012-10-01 11:15:00
1:45 PM,77.0,60.8,57,30.04,-9999.0,SSW,6.7,-,N/A,,Clear,200,2012-10-01 11:45:00
2:15 PM,78.8,60.8,54,30.01,-9999.0,South,6.7,-,N/A,,Clear,190,2012-10-01 12:15:00
2:45 PM,78.8,60.8,54,30.01,-9999.0,South,8.9,-,N/A,,Clear,180,2012-10-01 12:45:00
3:15 PM,78.8,60.8,54,30.01,-9999.0,South,8.9,-,N/A,,Clear,180,2012-10-01 13:15:00
3:45 PM,-9999,-9999,N/A,-9999,3.7,South,6.7,-,N/A,Rain,Light Rain,190,2012-10-01 13:45:00
4:15 PM,77.0,60.8,57,30.01,-9999.0,South,11.2,-,N/A,,Clear,180,2012-10-01 14:15:00
4:45 PM,75.2,60.8,61,30.01,-9999.0,South,8.9,-,N/A,,Clear,180,2012-10-01 14:45:00
5:15 PM,75.2,60.8,61,30.01,-9999.0,South,6.7,-,N/A,,Clear,180,2012-10-01 15:15:00
5:45 PM,73.4,60.8,65,30.01,-9999.0,SSW,6.7,-,N/A,,Clear,200,2012-10-01 15:45:00
6:15 PM,71.6,60.8,69,30.01,-9999.0,South,6.7,-,N/A,,Clear,170,2012-10-01 16:15:00
6:45 PM,-9999,-9999,N/A,-9999,3.7,South,6.7,-,N/A,Rain,Rain,180,2012-10-01 16:45:00
7:15 PM,66.2,60.8,83,30.01,-9999.0,SSE,4.5,-,N/A,,Clear,150,2012-10-01 17:15:00
7:45 PM,66.2,60.8,83,30.01,-9999.0,SSE,4.5,-,N/A,,Clear,150,2012-10-01 17:45:00
8:15 PM,64.4,59.0,83,30.01,-9999.0,SSE,4.5,-,N/A,,Clear,150,2012-10-01 18:15:00
8:45 PM,62.6,59.0,88,30.01,-9999.0,SSE,4.5,-,N/A,,Clear,150,2012-10-01 18:45:00
9:15 PM,60.8,59.0,94,30.01,-9999.0,SE,2.2,-,N/A,,Clear,140,2012-10-01 19:15:00
9:45 PM,-9999,-9999,N/A,-9999,5.0,Variable,4.5,-,N/A,,Overcast,0,2012-10-01 19:45:00
10:15 PM,60.8,59.0,94,30.04,5.0,Calm,Calm,-,N/A,,Unknown,0,2012-10-01 20:15:00
10:45 PM,59.0,57.2,94,30.04,5.0,Calm,Calm,-,N/A,,Unknown,0,2012-10-01 20:45:00
11:15 PM,59.0,59.0,100,30.04,3.7,Calm,Calm,-,N/A,,Unknown,0,2012-10-01 21:15:00
11:45 PM,57.2,57.2,100,30.04,3.7,NW,2.2,-,N/A,,Unknown,320,2012-10-01 21:45:00